Home > Weather > Hollabrunn > Past weeks

Flag for Austria Past Weather in Hollabrunn, Lower Austria, Austria — Yesterday and Last 2 Weeks

Now
64 °F

Mild.


Feels Like: 64 °F
Forecast: 47 / 75 °F
Wind: 8 mph from Northwest

Location: Retz

Current Time: Aug 30, 2016 at 3:26:26 AM

Latest Report: Aug 30, 2016 at 2:00 AM


Visibility: N/A

Pressure: 30.11 "Hg

Humidity: 86%

Dew Point: 60 °F

Location of HollabrunnLocation

Past Weather in Hollabrunn — Graph

°F

Hollabrunn Temperature Yesterday

Maximum temperature yesterday: 76 °F (at 3:00 PM)
Minimum temperature yesterday: 66 °F (at 7:00 AM)
Average temperature yesterday: 70 °F

High & Low Weather Summary for the Past Weeks

 TemperatureHumidityPressure
High86 °F (Aug 28, 5:00 PM)97% (Aug 20, 5:00 AM)30.36 "Hg (Aug 20, 5:00 AM)
Low56 °F (Aug 18, 6:00 AM)31% (Aug 18, 3:00 PM)29.76 "Hg (Aug 18, 6:00 PM)
Average68 °F66%30.07 "Hg
* Reported Aug 15 2:00 AM — Aug 30 2:00 AM, Hollabrunn, Weather by CustomWeather, © 2016

Note: Actual official high and low records may vary slightly from our data, if they occured in-between our weather recording intervals... More about our weather records

Advertising

Hollabrunn Weather History for the Previous 24 Hours

Scroll right to see more
 ConditionsComfort  
Time TempWeatherWind HumidityBarometerVisibility
2:00 AM
Tue, Aug 30
64 °FMild.8 mph86%30.11 "HgN/A
1:00 AM65 °FMild.8 mph83%30.10 "HgN/A
12:00 AM65 °FMild.6 mph83%30.11 "HgN/A
11:00 PM
Mon, Aug 29
66 °FMild.5 mph81%30.09 "HgN/A
10:00 PM67 °FMild.3 mph80%30.08 "HgN/A
9:00 PM68 °FMild.3 mph78%30.06 "HgN/A
7:00 PM70 °FMild.3 mph72%30.03 "HgN/A
6:00 PM71 °FMild.5 mph69%30.03 "HgN/A
5:00 PM72 °FMild.5 mph61%30.02 "HgN/A
4:00 PM75 °FMild.6 mph62%30.01 "HgN/A
3:00 PM76 °FMild.7 mph61%30.01 "HgN/A
2:00 PM74 °FScattered clouds.6 mph67%30.02 "Hg12 mi
1:00 PM70 °FMild.2 mph81%30.03 "HgN/A
12:00 PM67 °FFog.2 mph89%30.06 "HgN/A
11:00 AM72 °FMild.3 mph61%30.06 "HgN/A
10:00 AM72 °FMild.2 mph73%29.99 "HgN/A
9:00 AM69 °FMild.2 mph80%29.98 "HgN/A
8:00 AM69 °FPartly sunny.2 mph78%29.97 "Hg6 mi
7:00 AM66 °FPartly sunny.1 mph84%29.96 "Hg6 mi
6:00 AM66 °FMild.1 mph83%29.96 "HgN/A
5:00 AM66 °FMild.1 mph85%29.97 "HgN/A
4:00 AM69 °FMild.3 mph77%29.97 "HgN/A
3:00 AM69 °FMild.1 mph73%29.97 "HgN/A
Weather by CustomWeather, © 2016

See weather overviewHow to use our weather pages